When you browse on this site, cookies collect data to enhance your experience and personalize the content and advertising you see.
Visit our Privacy Policy to learn more. By continuing to use the site, you agree to this use of cookies and data.
  • In Lithuania
  • List of Countries
  • For 7 days
  • Water Temperature
  • Weather Map
  • Weather Widgets
  • user-avatar
    Login

    Hourly Weather Ngozi

    Today, 23 September, Monday

    Time Temperature Precipitation Wind Pressure Humidity
    00:00 +17°C° 0 mm 0 mps 618 mmHg 67%
    01:00 +17°C° 0 mm 0 mps 618 mmHg 69%
    02:00 +16°C° 0 mm 0 mps 617 mmHg 71%
    03:00 +16°C° 0 mm 0 mps 617 mmHg 71%
    04:00 +16°C° 0 mm 0 mps 618 mmHg 71%
    05:00 +16°C° 0 mm 0 mps 618 mmHg 72%
    06:00 +18°C° 0 mm 0 mps 619 mmHg 65%
    07:00 +22°C° 0 mm 1 mps 620 mmHg 58%
    08:00 +24°C° 0 mm 1 mps 621 mmHg 52%
    09:00 +26°C° 0 mm 1 mps 622 mmHg 45%
    10:00 +28°C° 0 mm 2 mps 622 mmHg 39%
    11:00 +30°C° 0 mm 2 mps 622 mmHg 33%
    12:00 +29°C° 0 mm 2 mps 621 mmHg 34%
    13:00 +29°C° 0 mm 3 mps 620 mmHg 36%
    14:00 +28°C° 0 mm 3 mps 619 mmHg 38%
    15:00 +28°C° 0 mm 3 mps 619 mmHg 39%
    16:00 +27°C° 0 mm 2 mps 619 mmHg 40%
    17:00 +27°C° 0 mm 1 mps 619 mmHg 42%
    18:00 +25°C° 0 mm 1 mps 619 mmHg 48%
    19:00 +23°C° 0 mm 1 mps 619 mmHg 53%
    20:00 +19°C° 0 mm 0 mps 619 mmHg 59%
    21:00 +20°C° 0 mm 1 mps 619 mmHg 60%
    22:00 +20°C° 0 mm 1 mps 619 mmHg 62%
    23:00 +20°C° 0 mm 1 mps 618 mmHg 63%

    Tomorrow, 24 September, Tuesday

    Time Temperature Precipitation Wind Pressure Humidity
    00:00 +19°C° 0 mm 1 mps 618 mmHg 65%
    01:00 +17°C° 0 mm 0 mps 617 mmHg 68%
    02:00 +16°C° 0 mm 0 mps 616 mmHg 71%
    03:00 +16°C° 0 mm 0 mps 617 mmHg 71%
    04:00 +16°C° 0 mm 0 mps 617 mmHg 72%
    05:00 +15°C° 0 mm 0 mps 617 mmHg 72%
    06:00 +18°C° 0 mm 0 mps 618 mmHg 64%
    07:00 +21°C° 0 mm 0 mps 620 mmHg 55%
    08:00 +24°C° 0 mm 0 mps 621 mmHg 46%
    09:00 +27°C° 0 mm 1 mps 621 mmHg 42%
    10:00 +28°C° 0 mm 2 mps 621 mmHg 38%
    11:00 +30°C° 0 mm 3 mps 621 mmHg 34%
    12:00 +30°C° 0 mm 3 mps 621 mmHg 33%
    13:00 +30°C° 0 mm 2 mps 620 mmHg 32%
    14:00 +29°C° 0 mm 2 mps 619 mmHg 31%
    15:00 +29°C° 0 mm 2 mps 619 mmHg 33%
    16:00 +28°C° 0 mm 2 mps 619 mmHg 35%
    17:00 +28°C° 0 mm 2 mps 618 mmHg 37%
    18:00 +26°C° 0 mm 1 mps 618 mmHg 41%
    19:00 +24°C° 0 mm 1 mps 618 mmHg 45%
    20:00 +23°C° 0 mm 1 mps 618 mmHg 48%
    21:00 +22°C° 0 mm 1 mps 618 mmHg 50%
    22:00 +22°C° 0 mm 1 mps 618 mmHg 52%
    23:00 +19°C° 0 mm 0 mps 618 mmHg 53%

    Day after tomorrow, 25 September, Wednesday

    Time Temperature Precipitation Wind Pressure Humidity
    00:00 +19°C° 0 mm 0 mps 617 mmHg 54%
    01:00 +18°C° 0 mm 0 mps 617 mmHg 55%
    02:00 +18°C° 0 mm 0 mps 616 mmHg 57%
    03:00 +18°C° 0 mm 0 mps 617 mmHg 57%
    04:00 +17°C° 0 mm 0 mps 617 mmHg 57%
    05:00 +19°C° 0 mm 1 mps 617 mmHg 58%
    06:00 +21°C° 0 mm 1 mps 618 mmHg 53%
    07:00 +22°C° 0 mm 1 mps 619 mmHg 49%
    08:00 +24°C° 0 mm 2 mps 621 mmHg 44%
    09:00 +26°C° 0 mm 2 mps 621 mmHg 40%
    10:00 +28°C° 0 mm 3 mps 621 mmHg 35%
    11:00 +30°C° 0 mm 3 mps 621 mmHg 31%
    12:00 +29°C° 0 mm 3 mps 620 mmHg 33%
    13:00 +28°C° 0 mm 3 mps 620 mmHg 35%
    14:00 +28°C° 0 mm 2 mps 619 mmHg 38%
    15:00 +27°C° 0 mm 2 mps 618 mmHg 41%
    16:00 +26°C° 0 mm 2 mps 618 mmHg 44%
    17:00 +25°C° 0 mm 1 mps 617 mmHg 47%
    18:00 +24°C° 0 mm 1 mps 617 mmHg 49%
    19:00 +23°C° 0 mm 1 mps 617 mmHg 52%
    20:00 +22°C° 0 mm 1 mps 618 mmHg 54%
    21:00 +21°C° 0 mm 1 mps 618 mmHg 56%
    22:00 +21°C° 0 mm 1 mps 617 mmHg 58%
    23:00 +20°C° 0 mm 1 mps 617 mmHg 60%

    26 September, Thursday

    Time Temperature Precipitation Wind Pressure Humidity
    00:00 +19°C° 0 mm 1 mps 617 mmHg 61%
    01:00 +17°C° 0 mm 0 mps 617 mmHg 62%
    02:00 +17°C° 0 mm 0 mps 616 mmHg 62%
    03:00 +19°C° 0 mm 1 mps 617 mmHg 61%
    04:00 +19°C° 0 mm 1 mps 617 mmHg 60%
    05:00 +19°C° 0 mm 1 mps 617 mmHg 59%
    06:00 +19°C° 0 mm 2 mps 618 mmHg 54%
    07:00 +20°C° 0 mm 2 mps 619 mmHg 49%
    08:00 +21°C° 0 mm 3 mps 621 mmHg 45%
    09:00 +24°C° 0 mm 3 mps 621 mmHg 42%
    10:00 +26°C° 0 mm 3 mps 621 mmHg 39%
    11:00 +28°C° 0 mm 3 mps 621 mmHg 36%
    12:00 +28°C° 0 mm 3 mps 621 mmHg 36%
    13:00 +27°C° 0 mm 3 mps 620 mmHg 36%
    14:00 +27°C° 0 mm 2 mps 619 mmHg 36%
    15:00 +27°C° 0 mm 2 mps 619 mmHg 37%
    16:00 +26°C° 0 mm 2 mps 618 mmHg 39%
    17:00 +26°C° 0 mm 1 mps 618 mmHg 40%
    18:00 +25°C° 0 mm 1 mps 618 mmHg 43%
    19:00 +24°C° 0 mm 1 mps 619 mmHg 46%
    20:00 +22°C° 0 mm 1 mps 619 mmHg 49%
    21:00 +22°C° 0 mm 1 mps 619 mmHg 51%
    22:00 +19°C° 0 mm 0 mps 619 mmHg 52%
    23:00 +19°C° 0 mm 0 mps 619 mmHg 54%

    27 September, Friday

    Time Temperature Precipitation Wind Pressure Humidity
    00:00 +19°C° 0 mm 0 mps 618 mmHg 55%
    01:00 +18°C° 0 mm 0 mps 618 mmHg 56%
    02:00 +18°C° 0 mm 0 mps 617 mmHg 57%
    03:00 +18°C° 0 mm 0 mps 617 mmHg 58%
    04:00 +17°C° 0 mm 0 mps 618 mmHg 59%
    05:00 +17°C° 0 mm 0 mps 618 mmHg 60%
    06:00 +20°C° 0 mm 1 mps 619 mmHg 57%
    07:00 +21°C° 0 mm 1 mps 620 mmHg 54%
    08:00 +22°C° 0 mm 1 mps 620 mmHg 50%
    09:00 +24°C° 0 mm 2 mps 621 mmHg 47%
    10:00 +25°C° 0 mm 2 mps 621 mmHg 45%
    11:00 +26°C° 0 mm 2 mps 621 mmHg 42%
    12:00 +26°C° 0 mm 2 mps 620 mmHg 43%
    13:00 +26°C° 0 mm 2 mps 619 mmHg 44%
    14:00 +25°C° 0 mm 3 mps 618 mmHg 45%
    15:00 +25°C° 0 mm 2 mps 618 mmHg 45%
    16:00 +25°C° 0 mm 2 mps 618 mmHg 45%
    17:00 +25°C° 0 mm 2 mps 618 mmHg 46%
    18:00 +24°C° 0 mm 1 mps 618 mmHg 50%
    19:00 +23°C° 0 mm 1 mps 618 mmHg 55%
    20:00 +22°C° 0 mm 1 mps 618 mmHg 59%
    21:00 +21°C° 0 mm 1 mps 618 mmHg 60%
    22:00 +21°C° 0 mm 1 mps 618 mmHg 62%
    23:00 +19°C° 0 mm 0 mps 618 mmHg 63%

    28 September, Saturday

    Time Temperature Precipitation Wind Pressure Humidity
    00:00 +19°C° 0 mm 0 mps 618 mmHg 63%
    01:00 +18°C° 0 mm 0 mps 617 mmHg 64%
    02:00 +18°C° 0 mm 0 mps 617 mmHg 64%
    03:00 +18°C° 0 mm 0 mps 617 mmHg 64%
    04:00 +18°C° 0 mm 0 mps 617 mmHg 64%
    05:00 +18°C° 0 mm 0 mps 618 mmHg 65%
    06:00 +19°C° 0 mm 0 mps 619 mmHg 60%
    07:00 +23°C° 0 mm 1 mps 619 mmHg 56%
    08:00 +24°C° 0 mm 1 mps 620 mmHg 52%
    09:00 +25°C° 0 mm 1 mps 621 mmHg 47%
    10:00 +27°C° 0 mm 2 mps 621 mmHg 42%
    11:00 +28°C° 0 mm 2 mps 621 mmHg 38%
    12:00 +28°C° 0 mm 2 mps 620 mmHg 38%
    13:00 +28°C° 0 mm 2 mps 619 mmHg 38%
    14:00 +28°C° 0 mm 2 mps 619 mmHg 39%
    15:00 +25°C° 0.7 mm 2 mps 618 mmHg 53%
    16:00 +21°C° 0.7 mm 2 mps 617 mmHg 68%
    17:00 +19°C° 0.7 mm 1 mps 616 mmHg 83%
    18:00 +19°C° 1.2 mm 1 mps 616 mmHg 85%
    19:00 +19°C° 1.2 mm 1 mps 617 mmHg 86%
    20:00 +19°C° 1.2 mm 1 mps 617 mmHg 88%
    21:00 +19°C° 0.9 mm 1 mps 617 mmHg 88%
    22:00 +19°C° 0.9 mm 1 mps 618 mmHg 87%
    23:00 +19°C° 0.9 mm 1 mps 618 mmHg 87%
    Show more